When you browse on this site, cookies collect data to enhance your experience and personalize the content and advertising you see.
Visit our Privacy Policy to learn more. By continuing to use the site, you agree to this use of cookies and data.
EN

Hourly Weather Krinichnaya (Biryukove)

Today, 7 August, Friday

Time Temperature Precipitation Wind Pressure Humidity
00:00 +26°C° 0 mm 3 mps 744 mmHg 61%
01:00 +26°C° 0 mm 3 mps 745 mmHg 63%
02:00 +25°C° 0 mm 3 mps 745 mmHg 66%
03:00 +25°C° 0 mm 3 mps 745 mmHg 64%
04:00 +25°C° 0 mm 3 mps 745 mmHg 66%
05:00 +24°C° 0 mm 3 mps 745 mmHg 68%
06:00 +24°C° 0 mm 3 mps 745 mmHg 70%
07:00 +26°C° 0 mm 4 mps 745 mmHg 65%
08:00 +28°C° 0 mm 4 mps 745 mmHg 60%
09:00 +30°C° 0 mm 5 mps 746 mmHg 53%
10:00 +33°C° 0 mm 4 mps 745 mmHg 47%
11:00 +34°C° 0 mm 4 mps 745 mmHg 41%
12:00 +35°C° 0 mm 4 mps 745 mmHg 35%
13:00 +36°C° 0 mm 5 mps 745 mmHg 34%
14:00 +36°C° 0 mm 5 mps 745 mmHg 32%
15:00 +36°C° 0 mm 5 mps 745 mmHg 31%
16:00 +35°C° 0 mm 5 mps 744 mmHg 32%
17:00 +35°C° 0 mm 5 mps 744 mmHg 34%
18:00 +34°C° 0 mm 5 mps 744 mmHg 35%
19:00 +32°C° 0 mm 5 mps 744 mmHg 37%
20:00 +29°C° 0 mm 5 mps 744 mmHg 39%
21:00 +27°C° 0 mm 5 mps 744 mmHg 41%
22:00 +26°C° 0 mm 5 mps 744 mmHg 44%
23:00 +25°C° 0 mm 5 mps 744 mmHg 48%

Tomorrow, 8 August, Saturday

Time Temperature Precipitation Wind Pressure Humidity
00:00 +23°C° 0 mm 5 mps 744 mmHg 52%
01:00 +23°C° 0 mm 4 mps 744 mmHg 56%
02:00 +22°C° 0 mm 4 mps 744 mmHg 59%
03:00 +22°C° 0 mm 4 mps 744 mmHg 63%
04:00 +21°C° 0 mm 4 mps 744 mmHg 67%
05:00 +21°C° 0 mm 4 mps 743 mmHg 70%
06:00 +21°C° 0 mm 4 mps 743 mmHg 74%
07:00 +23°C° 0 mm 4 mps 743 mmHg 68%
08:00 +25°C° 0 mm 5 mps 744 mmHg 62%
09:00 +27°C° 0 mm 5 mps 744 mmHg 56%
10:00 +28°C° 0 mm 5 mps 744 mmHg 52%
11:00 +29°C° 0 mm 6 mps 743 mmHg 48%
12:00 +30°C° 0 mm 6 mps 743 mmHg 44%
13:00 +32°C° 0 mm 6 mps 743 mmHg 42%
14:00 +32°C° 0 mm 6 mps 743 mmHg 40%
15:00 +32°C° 0 mm 6 mps 742 mmHg 38%
16:00 +30°C° 0 mm 6 mps 742 mmHg 39%
17:00 +30°C° 0 mm 6 mps 742 mmHg 39%
18:00 +29°C° 0 mm 6 mps 742 mmHg 39%
19:00 +27°C° 0 mm 6 mps 742 mmHg 42%
20:00 +26°C° 0 mm 5 mps 742 mmHg 44%
21:00 +23°C° 0 mm 5 mps 742 mmHg 46%
22:00 +22°C° 0 mm 5 mps 742 mmHg 49%
23:00 +22°C° 0 mm 5 mps 742 mmHg 52%

Day after tomorrow, 9 August, Sunday

Time Temperature Precipitation Wind Pressure Humidity
00:00 +21°C° 0 mm 5 mps 742 mmHg 54%
01:00 +20°C° 0 mm 5 mps 742 mmHg 58%
02:00 +19°C° 0 mm 5 mps 742 mmHg 61%
03:00 +19°C° 0 mm 5 mps 742 mmHg 64%
04:00 +18°C° 0 mm 4 mps 742 mmHg 66%
05:00 +18°C° 0 mm 4 mps 742 mmHg 68%
06:00 +18°C° 0 mm 4 mps 742 mmHg 70%
07:00 +19°C° 0 mm 4 mps 742 mmHg 62%
08:00 +21°C° 0 mm 5 mps 742 mmHg 55%
09:00 +23°C° 0 mm 6 mps 742 mmHg 47%
10:00 +24°C° 0 mm 6 mps 742 mmHg 44%
11:00 +27°C° 0 mm 5 mps 742 mmHg 40%
12:00 +28°C° 0 mm 5 mps 742 mmHg 36%
13:00 +29°C° 0 mm 5 mps 742 mmHg 35%
14:00 +29°C° 0 mm 5 mps 742 mmHg 34%
15:00 +30°C° 0 mm 5 mps 741 mmHg 33%
16:00 +29°C° 0 mm 5 mps 741 mmHg 34%
17:00 +29°C° 0 mm 5 mps 741 mmHg 36%
18:00 +28°C° 0 mm 5 mps 741 mmHg 37%
19:00 +27°C° 0 mm 4 mps 741 mmHg 43%
20:00 +25°C° 0 mm 4 mps 741 mmHg 48%
21:00 +22°C° 0 mm 4 mps 741 mmHg 54%
22:00 +21°C° 0 mm 3 mps 741 mmHg 57%
23:00 +21°C° 0 mm 3 mps 741 mmHg 60%

10 August, Monday

Time Temperature Precipitation Wind Pressure Humidity
00:00 +20°C° 0 mm 3 mps 742 mmHg 63%
01:00 +20°C° 0 mm 3 mps 741 mmHg 65%
02:00 +19°C° 0 mm 3 mps 741 mmHg 66%
03:00 +19°C° 0 mm 3 mps 741 mmHg 68%
04:00 +18°C° 0 mm 3 mps 741 mmHg 69%
05:00 +18°C° 0 mm 3 mps 741 mmHg 70%
06:00 +18°C° 0 mm 3 mps 741 mmHg 71%
07:00 +20°C° 0 mm 3 mps 741 mmHg 63%
08:00 +22°C° 0 mm 3 mps 741 mmHg 56%
09:00 +25°C° 0 mm 4 mps 742 mmHg 49%
10:00 +26°C° 0 mm 4 mps 742 mmHg 45%
11:00 +27°C° 0 mm 3 mps 742 mmHg 40%
12:00 +28°C° 0 mm 3 mps 742 mmHg 36%
13:00 +29°C° 0 mm 3 mps 741 mmHg 34%
14:00 +30°C° 0 mm 3 mps 741 mmHg 32%
15:00 +30°C° 0 mm 3 mps 741 mmHg 30%
16:00 +30°C° 0 mm 3 mps 741 mmHg 31%
17:00 +30°C° 0 mm 3 mps 741 mmHg 31%
18:00 +30°C° 0 mm 3 mps 741 mmHg 32%
19:00 +28°C° 0 mm 3 mps 741 mmHg 36%
20:00 +26°C° 0 mm 3 mps 741 mmHg 41%
21:00 +24°C° 0 mm 2 mps 741 mmHg 46%
22:00 +23°C° 0 mm 2 mps 741 mmHg 48%
23:00 +23°C° 0 mm 2 mps 741 mmHg 50%

11 August, Tuesday

Time Temperature Precipitation Wind Pressure Humidity
00:00 +21°C° 0 mm 3 mps 741 mmHg 52%
01:00 +21°C° 0 mm 2 mps 741 mmHg 54%
02:00 +20°C° 0 mm 2 mps 741 mmHg 56%
03:00 +20°C° 0 mm 2 mps 741 mmHg 58%
04:00 +20°C° 0 mm 2 mps 741 mmHg 58%
05:00 +20°C° 0 mm 2 mps 741 mmHg 59%
06:00 +21°C° 0 mm 1 mps 741 mmHg 59%
07:00 +23°C° 0 mm 2 mps 741 mmHg 54%
08:00 +25°C° 0 mm 2 mps 741 mmHg 48%
09:00 +27°C° 0 mm 2 mps 741 mmHg 43%
10:00 +28°C° 0 mm 2 mps 741 mmHg 40%
11:00 +29°C° 0 mm 2 mps 741 mmHg 38%
12:00 +30°C° 0 mm 2 mps 741 mmHg 35%
13:00 +30°C° 0 mm 2 mps 741 mmHg 35%
14:00 +30°C° 0 mm 2 mps 741 mmHg 35%
15:00 +30°C° 0 mm 2 mps 740 mmHg 35%
16:00 +30°C° 0 mm 2 mps 740 mmHg 36%
17:00 +30°C° 0 mm 2 mps 740 mmHg 38%
18:00 +29°C° 0 mm 2 mps 740 mmHg 39%
19:00 +28°C° 0.1 mm 2 mps 740 mmHg 44%
20:00 +26°C° 0.1 mm 2 mps 740 mmHg 48%
21:00 +25°C° 0.1 mm 1 mps 740 mmHg 53%
22:00 +24°C° 0.2 mm 2 mps 740 mmHg 58%
23:00 +23°C° 0.2 mm 2 mps 740 mmHg 64%

12 August, Wednesday

Time Temperature Precipitation Wind Pressure Humidity
00:00 +21°C° 0.2 mm 2 mps 740 mmHg 69%
01:00 +21°C° 0.1 mm 1 mps 740 mmHg 70%
02:00 +21°C° 0.1 mm 1 mps 740 mmHg 72%
03:00 +19°C° 0.1 mm 0 mps 740 mmHg 73%
04:00 +21°C° 0 mm 1 mps 740 mmHg 73%
05:00 +21°C° 0 mm 1 mps 740 mmHg 73%
06:00 +21°C° 0 mm 1 mps 740 mmHg 72%
07:00 +23°C° 0 mm 1 mps 740 mmHg 64%
08:00 +25°C° 0 mm 1 mps 740 mmHg 56%
09:00 +27°C° 0 mm 1 mps 740 mmHg 48%
10:00 +28°C° 0 mm 2 mps 740 mmHg 44%
11:00 +29°C° 0 mm 2 mps 740 mmHg 40%
12:00 +30°C° 0 mm 2 mps 740 mmHg 36%
13:00 +30°C° 0 mm 2 mps 740 mmHg 36%
14:00 +30°C° 0 mm 2 mps 739 mmHg 36%
15:00 +30°C° 0 mm 2 mps 739 mmHg 36%
16:00 +30°C° 0 mm 2 mps 739 mmHg 37%
17:00 +30°C° 0 mm 2 mps 739 mmHg 38%
18:00 +29°C° 0 mm 1 mps 739 mmHg 38%
19:00 +28°C° 0 mm 1 mps 739 mmHg 42%
20:00 +26°C° 0 mm 1 mps 739 mmHg 45%
21:00 +23°C° 0 mm 0 mps 739 mmHg 49%
22:00 +24°C° 0.3 mm 2 mps 739 mmHg 57%
23:00 +21°C° 0.3 mm 3 mps 739 mmHg 65%
Show more